Time,TemperatureF,DewpointF,PressureIn,WindDirection,WindDirectionDegrees,WindSpeedMPH,WindSpeedGustMPH,Humidity,HourlyPrecipIn,Conditions,Clouds,dailyrainin,SoftwareType,DateUTC
2013-02-21 00:01:00,32.0,15.0,30.18,East,90,2.0,-999.0,50,-99.99,,,-99.99,,2013-02-21 06:01:00,
2013-02-21 00:11:00,32.0,15.0,30.18,East,90,2.0,-999.0,50,-99.99,,,-99.99,,2013-02-21 06:11:00,
2013-02-21 00:21:00,31.0,15.0,30.19,East,93,2.0,-999.0,52,-99.99,,,-99.99,,2013-02-21 06:21:00,
2013-02-21 00:31:00,31.0,15.0,30.19,East,93,2.0,-999.0,52,-99.99,,,-99.99,,2013-02-21 06:31:00,
2013-02-21 00:41:00,31.0,15.0,30.19,East,93,2.0,-999.0,52,-99.99,,,-99.99,,2013-02-21 06:41:00,
2013-02-21 00:51:00,30.0,17.0,30.17,ESE,107,3.0,-999.0,59,-99.99,,,-99.99,,2013-02-21 06:51:00,
2013-02-21 01:01:00,30.0,21.0,30.16,East,98,2.0,-999.0,70,-99.99,,,-99.99,,2013-02-21 07:01:00,
2013-02-21 01:11:00,29.0,20.0,30.18,ENE,70,1.0,-999.0,69,-99.99,,,-99.99,,2013-02-21 07:11:00,
2013-02-21 01:21:00,29.0,20.0,30.18,ENE,70,1.0,-999.0,69,-99.99,,,-99.99,,2013-02-21 07:21:00,
2013-02-21 01:32:00,29.0,20.0,30.18,ENE,70,1.0,-999.0,69,-99.99,,,-99.99,,2013-02-21 07:32:00,
2013-02-21 01:42:00,29.0,22.0,30.16,East,97,2.0,-999.0,74,-99.99,,,-99.99,,2013-02-21 07:42:00,
2013-02-21 01:52:00,29.0,22.0,30.16,East,97,2.0,-999.0,74,-99.99,,,-99.99,,2013-02-21 07:52:00,
2013-02-21 02:01:00,29.0,22.0,30.17,ENE,76,2.0,-999.0,75,-99.99,,,-99.99,,2013-02-21 08:01:00,
2013-02-21 02:11:00,29.0,23.0,30.16,ENE,77,1.0,-999.0,77,-99.99,,,-99.99,,2013-02-21 08:11:00,
2013-02-21 02:21:00,29.0,23.0,30.16,ENE,77,1.0,-999.0,77,-99.99,,,-99.99,,2013-02-21 08:21:00,
2013-02-21 02:32:00,29.0,23.0,30.16,ENE,77,1.0,-999.0,77,-99.99,,,-99.99,,2013-02-21 08:32:00,
2013-02-21 02:41:00,29.0,23.0,30.16,ENE,77,1.0,-999.0,77,-99.99,,,-99.99,,2013-02-21 08:41:00,
2013-02-21 02:51:00,29.0,23.0,30.14,ENE,60,2.0,-999.0,79,-99.99,,,-99.99,,2013-02-21 08:51:00,
2013-02-21 03:01:00,29.0,23.0,30.14,ENE,65,4.0,-999.0,77,-99.99,,,-99.99,,2013-02-21 09:01:00,
2013-02-21 03:11:00,29.0,23.0,30.14,ENE,65,4.0,-999.0,77,-99.99,,,-99.99,,2013-02-21 09:11:00,
2013-02-21 03:22:00,29.0,23.0,30.13,East,96,3.0,-999.0,78,-99.99,,,-99.99,,2013-02-21 09:22:00,
2013-02-21 03:31:00,29.0,23.0,30.12,East,87,2.0,-999.0,77,-99.99,,,-99.99,,2013-02-21 09:31:00,
2013-02-21 03:41:00,29.0,23.0,30.12,East,87,2.0,-999.0,77,-99.99,,,-99.99,,2013-02-21 09:41:00,
2013-02-21 03:51:00,29.0,23.0,30.11,East,84,2.0,-999.0,78,-99.99,,,-99.99,,2013-02-21 09:51:00,
2013-02-21 04:01:00,29.0,23.0,30.10,ENE,71,4.0,-999.0,78,-99.99,,,-99.99,,2013-02-21 10:01:00,
2013-02-21 04:11:00,29.0,23.0,30.10,ENE,71,4.0,-999.0,78,-99.99,,,-99.99,,2013-02-21 10:11:00,
2013-02-21 04:21:00,29.0,23.0,30.10,East,86,3.0,-999.0,78,-99.99,,,-99.99,,2013-02-21 10:21:00,
2013-02-21 04:31:00,29.0,23.0,30.09,ENE,76,2.0,-999.0,78,-99.99,,,-99.99,,2013-02-21 10:31:00,
2013-02-21 04:41:00,29.0,23.0,30.09,ENE,76,2.0,-999.0,78,-99.99,,,-99.99,,2013-02-21 10:41:00,
2013-02-21 04:51:00,29.0,23.0,30.08,East,96,4.0,-999.0,79,-99.99,,,-99.99,,2013-02-21 10:51:00,
2013-02-21 05:01:00,29.0,23.0,30.06,East,89,3.0,-999.0,78,-99.99,,,-99.99,,2013-02-21 11:01:00,
2013-02-21 05:11:00,29.0,23.0,30.06,East,89,3.0,-999.0,78,-99.99,,,-99.99,,2013-02-21 11:11:00,
2013-02-21 05:21:00,29.0,23.0,30.06,ESE,109,4.0,-999.0,78,-99.99,,,-99.99,,2013-02-21 11:21:00,
2013-02-21 05:31:00,29.0,23.0,30.04,ENE,69,6.0,-999.0,79,-99.99,,,-99.99,,2013-02-21 11:31:00,
2013-02-21 05:41:00,29.0,23.0,30.04,ENE,69,6.0,-999.0,79,-99.99,,,-99.99,,2013-02-21 11:41:00,
2013-02-21 05:51:00,29.0,24.0,30.06,ENE,67,3.0,-999.0,80,-99.99,,,-99.99,,2013-02-21 11:51:00,
2013-02-21 06:01:00,29.0,24.0,30.04,ENE,73,4.0,-999.0,80,-99.99,,,-99.99,,2013-02-21 12:01:00,
2013-02-21 06:11:00,29.0,24.0,30.04,ENE,73,4.0,-999.0,80,-99.99,,,-99.99,,2013-02-21 12:11:00,
2013-02-21 06:21:00,29.0,24.0,30.06,ESE,121,4.0,-999.0,80,-99.99,,,-99.99,,2013-02-21 12:21:00,
2013-02-21 06:32:00,29.0,24.0,30.03,East,86,4.0,-999.0,82,-99.99,,,-99.99,,2013-02-21 12:32:00,
2013-02-21 06:42:00,29.0,24.0,30.01,ENE,58,6.0,-999.0,81,-99.99,,,-99.99,,2013-02-21 12:42:00,
2013-02-21 06:52:00,29.0,24.0,30.01,ENE,58,6.0,-999.0,81,-99.99,,,-99.99,,2013-02-21 12:52:00,
2013-02-21 07:01:00,29.0,24.0,29.97,East,88,8.0,-999.0,81,-99.99,,,-99.99,,2013-02-21 13:01:00,
2013-02-21 07:12:00,29.0,24.0,29.97,East,88,8.0,-999.0,81,-99.99,,,-99.99,,2013-02-21 13:12:00,
2013-02-21 07:22:00,29.0,24.0,30.02,SSE,163,5.0,-999.0,81,-99.99,,,-99.99,,2013-02-21 13:22:00,
2013-02-21 07:32:00,29.0,25.0,30.08,ESE,106,3.0,-999.0,83,-99.99,,,-99.99,,2013-02-21 13:32:00,
2013-02-21 07:41:00,29.0,25.0,30.08,ESE,106,3.0,-999.0,83,-99.99,,,-99.99,,2013-02-21 13:41:00,
2013-02-21 07:51:00,29.0,25.0,29.99,East,96,5.0,-999.0,84,-99.99,,,-99.99,,2013-02-21 13:51:00,
2013-02-21 08:02:00,29.0,25.0,30.00,East,84,5.0,-999.0,84,-99.99,,,-99.99,,2013-02-21 14:02:00,
2013-02-21 08:11:00,29.0,25.0,30.00,East,84,5.0,-999.0,84,-99.99,,,-99.99,,2013-02-21 14:11:00,
2013-02-21 08:21:00,29.0,25.0,30.00,East,84,5.0,-999.0,84,-99.99,,,-99.99,,2013-02-21 14:21:00,
2013-02-21 08:32:00,29.0,25.0,29.99,ENE,61,5.0,-999.0,84,-99.99,,,-99.99,,2013-02-21 14:32:00,
2013-02-21 08:42:00,29.0,25.0,29.99,ENE,61,5.0,-999.0,84,-99.99,,,-99.99,,2013-02-21 14:42:00,
2013-02-21 08:52:00,29.0,25.0,29.97,ESE,103,4.0,-999.0,83,-99.99,,,-99.99,,2013-02-21 14:52:00,
2013-02-21 09:01:00,29.0,24.0,29.97,East,95,6.0,-999.0,82,-99.99,,,-99.99,,2013-02-21 15:01:00,
2013-02-21 09:12:00,29.0,24.0,29.97,East,95,6.0,-999.0,82,-99.99,,,-99.99,,2013-02-21 15:12:00,
2013-02-21 09:21:00,29.0,25.0,29.95,East,84,4.0,-999.0,84,-99.99,,,-99.99,,2013-02-21 15:21:00,
2013-02-21 09:32:00,29.0,25.0,29.95,East,89,5.0,-999.0,83,-99.99,,,-99.99,,2013-02-21 15:32:00,
2013-02-21 09:42:00,29.0,25.0,29.95,East,89,5.0,-999.0,83,-99.99,,,-99.99,,2013-02-21 15:42:00,
2013-02-21 09:51:00,29.0,24.0,29.92,ESE,105,6.0,-999.0,82,-99.99,,,-99.99,,2013-02-21 15:51:00,
2013-02-21 10:01:00,29.0,24.0,29.93,East,82,5.0,-999.0,82,-99.99,,,-99.99,,2013-02-21 16:01:00,
2013-02-21 10:12:00,29.0,24.0,29.92,East,82,6.0,-999.0,82,-99.99,,,-99.99,,2013-02-21 16:12:00,
2013-02-21 10:21:00,29.0,24.0,29.92,East,82,6.0,-999.0,82,-99.99,,,-99.99,,2013-02-21 16:21:00,
2013-02-21 10:32:00,29.0,25.0,29.88,ESE,103,4.0,-999.0,85,-99.99,,,-99.99,,2013-02-21 16:32:00,
2013-02-21 10:42:00,29.0,26.0,29.90,East,99,3.0,-999.0,87,-99.99,,,-99.99,,2013-02-21 16:42:00,
2013-02-21 10:52:00,29.0,26.0,29.90,East,99,3.0,-999.0,87,-99.99,,,-99.99,,2013-02-21 16:52:00,
2013-02-21 11:01:00,29.0,26.0,29.85,ENE,73,4.0,-999.0,87,-99.99,,,-99.99,,2013-02-21 17:01:00,
2013-02-21 11:11:00,30.0,26.0,29.84,ENE,73,6.0,-999.0,86,-99.99,,,-99.99,,2013-02-21 17:11:00,
2013-02-21 11:21:00,30.0,26.0,29.84,ENE,73,6.0,-999.0,86,-99.99,,,-99.99,,2013-02-21 17:21:00,
2013-02-21 11:32:00,30.0,26.0,29.83,ENE,73,4.0,-999.0,86,-99.99,,,-99.99,,2013-02-21 17:32:00,
2013-02-21 11:42:00,30.0,26.0,29.83,ENE,73,4.0,-999.0,86,-99.99,,,-99.99,,2013-02-21 17:42:00,
2013-02-21 11:52:00,30.0,27.0,29.87,ENE,73,0.0,-999.0,87,-99.99,,,-99.99,,2013-02-21 17:52:00,
2013-02-21 12:02:00,30.0,27.0,29.94,ENE,73,0.0,-999.0,88,-99.99,,,-99.99,,2013-02-21 18:02:00,
2013-02-21 12:11:00,30.0,27.0,29.94,ENE,73,0.0,-999.0,88,-99.99,,,-99.99,,2013-02-21 18:11:00,
2013-02-21 12:22:00,31.0,28.0,29.89,ENE,73,0.0,-999.0,88,-99.99,,,-99.99,,2013-02-21 18:22:00,
2013-02-21 12:31:00,31.0,28.0,29.93,ENE,73,0.0,-999.0,89,-99.99,,,-99.99,,2013-02-21 18:31:00,
2013-02-21 12:42:00,31.0,28.0,29.93,ENE,73,0.0,-999.0,89,-99.99,,,-99.99,,2013-02-21 18:42:00,
2013-02-21 12:51:00,31.0,28.0,29.91,ENE,73,0.0,-999.0,90,-99.99,,,-99.99,,2013-02-21 18:51:00,
2013-02-21 13:01:00,31.0,28.0,29.90,ENE,73,0.0,-999.0,90,-99.99,,,-99.99,,2013-02-21 19:01:00,
2013-02-21 13:12:00,31.0,28.0,29.90,ENE,73,0.0,-999.0,90,-99.99,,,-99.99,,2013-02-21 19:12:00,
2013-02-21 13:21:00,31.0,28.0,29.85,ENE,73,0.0,-999.0,90,-99.99,,,-99.99,,2013-02-21 19:21:00,
2013-02-21 13:31:00,31.0,28.0,29.85,ENE,73,0.0,-999.0,90,-99.99,,,-99.99,,2013-02-21 19:31:00,
2013-02-21 13:41:00,31.0,28.0,29.85,ENE,73,0.0,-999.0,90,-99.99,,,-99.99,,2013-02-21 19:41:00,
2013-02-21 13:51:00,32.0,29.0,29.84,ENE,73,0.0,-999.0,90,-99.99,,,-99.99,,2013-02-21 19:51:00,
2013-02-21 14:01:00,32.0,29.0,29.84,ENE,73,0.0,-999.0,90,-99.99,,,-99.99,,2013-02-21 20:01:00,
2013-02-21 14:11:00,32.0,29.0,29.82,ENE,73,0.0,-999.0,90,-99.99,,,-99.99,,2013-02-21 20:11:00,
2013-02-21 14:21:00,32.0,29.0,29.82,ENE,73,0.0,-999.0,90,-99.99,,,-99.99,,2013-02-21 20:21:00,
2013-02-21 14:32:00,32.0,29.0,29.81,ENE,74,0.0,-999.0,90,-99.99,,,-99.99,,2013-02-21 20:32:00,
2013-02-21 14:41:00,32.0,29.0,29.81,ENE,74,0.0,-999.0,90,-99.99,,,-99.99,,2013-02-21 20:41:00,
2013-02-21 14:52:00,32.0,30.0,29.80,ENE,74,0.0,-999.0,91,-99.99,,,-99.99,,2013-02-21 20:52:00,
2013-02-21 15:02:00,32.0,29.0,29.80,East,100,0.0,-999.0,90,-99.99,,,-99.99,,2013-02-21 21:02:00,
2013-02-21 15:11:00,32.0,29.0,29.79,East,95,0.0,-999.0,90,-99.99,,,-99.99,,2013-02-21 21:11:00,
2013-02-21 15:21:00,32.0,29.0,29.79,East,95,0.0,-999.0,90,-99.99,,,-99.99,,2013-02-21 21:21:00,
2013-02-21 15:31:00,32.0,29.0,29.78,East,86,0.0,-999.0,90,-99.99,,,-99.99,,2013-02-21 21:31:00,
2013-02-21 15:42:00,32.0,30.0,29.78,East,86,0.0,-999.0,91,-99.99,,,-99.99,,2013-02-21 21:42:00,
2013-02-21 15:51:00,32.0,30.0,29.78,East,86,0.0,-999.0,91,-99.99,,,-99.99,,2013-02-21 21:51:00,
2013-02-21 16:01:00,32.0,30.0,29.78,East,87,0.0,-999.0,91,-99.99,,,-99.99,,2013-02-21 22:01:00,
2013-02-21 16:11:00,32.0,30.0,29.78,East,87,0.0,-999.0,91,-99.99,,,-99.99,,2013-02-21 22:11:00,
2013-02-21 16:21:00,32.0,30.0,29.78,East,98,0.0,-999.0,92,-99.99,,,-99.99,,2013-02-21 22:21:00,
2013-02-21 16:31:00,32.0,30.0,29.78,East,95,0.0,-999.0,92,-99.99,,,-99.99,,2013-02-21 22:31:00,
2013-02-21 16:42:00,32.0,30.0,29.78,East,86,0.0,-999.0,92,-99.99,,,-99.99,,2013-02-21 22:42:00,
2013-02-21 16:52:00,32.0,30.0,29.78,East,86,0.0,-999.0,92,-99.99,,,-99.99,,2013-02-21 22:52:00,
2013-02-21 17:01:00,32.0,30.0,29.79,ENE,78,0.0,-999.0,92,-99.99,,,-99.99,,2013-02-21 23:01:00,
2013-02-21 17:11:00,32.0,30.0,29.79,ENE,78,0.0,-999.0,92,-99.99,,,-99.99,,2013-02-21 23:11:00,
2013-02-21 17:21:00,32.0,30.0,29.78,ENE,78,0.0,-999.0,92,-99.99,,,-99.99,,2013-02-21 23:21:00,
2013-02-21 17:32:00,32.0,30.0,29.79,ENE,78,0.0,-999.0,92,-99.99,,,-99.99,,2013-02-21 23:32:00,
2013-02-21 17:41:00,32.0,30.0,29.79,ENE,78,0.0,-999.0,92,-99.99,,,-99.99,,2013-02-21 23:41:00,
2013-02-21 17:52:00,32.0,30.0,29.78,East,84,0.0,-999.0,92,-99.99,,,-99.99,,2013-02-21 23:52:00,
2013-02-21 18:01:00,32.0,30.0,29.79,East,89,0.0,-999.0,92,-99.99,,,-99.99,,2013-02-22 00:01:00,
2013-02-21 18:11:00,32.0,30.0,29.79,East,89,0.0,-999.0,92,-99.99,,,-99.99,,2013-02-22 00:11:00,
2013-02-21 18:21:00,32.0,30.0,29.78,ESE,103,0.0,-999.0,92,-99.99,,,-99.99,,2013-02-22 00:21:00,
2013-02-21 18:32:00,32.0,30.0,29.80,East,94,0.0,-999.0,92,-99.99,,,-99.99,,2013-02-22 00:32:00,
2013-02-21 18:42:00,32.0,30.0,29.80,East,94,0.0,-999.0,92,-99.99,,,-99.99,,2013-02-22 00:42:00,
2013-02-21 18:51:00,32.0,30.0,29.80,East,79,0.0,-999.0,92,-99.99,,,-99.99,,2013-02-22 00:51:00,
2013-02-21 19:01:00,32.0,30.0,29.83,ENE,57,0.0,-999.0,92,-99.99,,,-99.99,,2013-02-22 01:01:00,
2013-02-21 19:11:00,32.0,30.0,29.83,ENE,57,0.0,-999.0,92,-99.99,,,-99.99,,2013-02-22 01:11:00,
2013-02-21 19:21:00,32.0,30.0,29.83,ENE,73,0.0,-999.0,92,-99.99,,,-99.99,,2013-02-22 01:21:00,
2013-02-21 19:32:00,32.0,30.0,29.84,ENE,68,0.0,-999.0,92,-99.99,,,-99.99,,2013-02-22 01:32:00,
2013-02-21 19:42:00,32.0,30.0,29.84,ENE,68,0.0,-999.0,92,-99.99,,,-99.99,,2013-02-22 01:42:00,
2013-02-21 19:51:00,32.0,30.0,29.84,ENE,68,0.0,-999.0,92,-99.99,,,-99.99,,2013-02-22 01:51:00,
2013-02-21 20:02:00,32.0,30.0,29.84,ENE,71,0.0,-999.0,92,-99.99,,,-99.99,,2013-02-22 02:02:00,
2013-02-21 20:11:00,32.0,30.0,29.84,ENE,71,0.0,-999.0,92,-99.99,,,-99.99,,2013-02-22 02:11:00,
2013-02-21 20:21:00,32.0,30.0,29.84,East,91,0.0,-999.0,92,-99.99,,,-99.99,,2013-02-22 02:21:00,
2013-02-21 20:32:00,32.0,30.0,29.83,East,91,0.0,-999.0,92,-99.99,,,-99.99,,2013-02-22 02:32:00,
2013-02-21 20:42:00,32.0,30.0,29.83,East,91,0.0,-999.0,93,-99.99,,,-99.99,,2013-02-22 02:42:00,
2013-02-21 20:52:00,32.0,30.0,29.83,East,91,0.0,-999.0,93,-99.99,,,-99.99,,2013-02-22 02:52:00,
2013-02-21 21:01:00,32.0,30.0,29.84,East,91,0.0,-999.0,93,-99.99,,,-99.99,,2013-02-22 03:01:00,
2013-02-21 21:11:00,32.0,30.0,29.84,East,91,0.0,-999.0,93,-99.99,,,-99.99,,2013-02-22 03:11:00,
2013-02-21 21:21:00,32.0,30.0,29.84,East,91,0.0,-999.0,93,-99.99,,,-99.99,,2013-02-22 03:21:00,
2013-02-21 21:32:00,32.0,30.0,29.84,East,91,0.0,-999.0,93,-99.99,,,-99.99,,2013-02-22 03:32:00,
2013-02-21 21:42:00,32.0,30.0,29.84,East,91,0.0,-999.0,93,-99.99,,,-99.99,,2013-02-22 03:42:00,
2013-02-21 21:51:00,31.0,29.0,29.83,East,91,0.0,-999.0,93,-99.99,,,-99.99,,2013-02-22 03:51:00,
2013-02-21 22:01:00,31.0,29.0,29.84,East,91,0.0,-999.0,93,-99.99,,,-99.99,,2013-02-22 04:01:00,
2013-02-21 22:11:00,31.0,29.0,29.84,East,91,0.0,-999.0,93,-99.99,,,-99.99,,2013-02-22 04:11:00,
2013-02-21 22:21:00,31.0,29.0,29.84,East,91,0.0,-999.0,93,-99.99,,,-99.99,,2013-02-22 04:21:00,
2013-02-21 22:32:00,31.0,29.0,29.85,East,91,0.0,-999.0,93,-99.99,,,-99.99,,2013-02-22 04:32:00,
2013-02-21 22:42:00,31.0,29.0,29.85,East,91,0.0,-999.0,93,-99.99,,,-99.99,,2013-02-22 04:42:00,
2013-02-21 22:51:00,31.0,29.0,29.85,East,91,0.0,-999.0,93,-99.99,,,-99.99,,2013-02-22 04:51:00,
2013-02-21 23:02:00,32.0,30.0,29.85,East,91,0.0,-999.0,93,-99.99,,,-99.99,,2013-02-22 05:02:00,
2013-02-21 23:12:00,32.0,30.0,29.85,East,91,0.0,-999.0,93,-99.99,,,-99.99,,2013-02-22 05:12:00,
2013-02-21 23:22:00,32.0,30.0,29.84,East,91,0.0,-999.0,93,-99.99,,,-99.99,,2013-02-22 05:22:00,
2013-02-21 23:32:00,32.0,30.0,29.85,East,91,0.0,-999.0,93,-99.99,,,-99.99,,2013-02-22 05:32:00,
2013-02-21 23:42:00,32.0,30.0,29.85,East,91,0.0,-999.0,93,-99.99,,,-99.99,,2013-02-22 05:42:00,
2013-02-21 23:52:00,32.0,30.0,29.84,East,91,0.0,-999.0,93,-99.99,,,-99.99,,2013-02-22 05:52:00,